[[{"header":{"parameterUnit":"m.s-1","parameterCategory":1,"la1":30.2991,"la2":30.254,"lo1":-89.0895,"lo2":-89.0444,"dy":0.0017,"dx":0.0017,"nx":28,"ny":28,"refTime":"2025-11-18T09:00:00:Z","depth":0,"parameterNumber":2,"parameterNumberName":"U-component_of_WINDS"},"data":[0,0,0,0,0,0,0,0,0,0,0,0,0,0,0,0,0,0,0,0,0,0,0,0,0,0,0,0,0,0,0,0,0,0,0,0,0,0,0,0,0,0,0,0,0,0,0,0,0,0,0,0,0,0,0,0,0,0,-0.1308,-0.1308,0,-0.1282,-0.1282,-0.1282,-0.127,-0.127,-0.127,-0.127,-0.1244,-0.1243,-0.1242,0,0,0,0,0,0,0,0,0,0,0,0,0,-0.1348,-0.1348,-0.1308,-0.1308,-0.1308,-0.1283,-0.1282,-0.1282,-0.127,-0.127,-0.127,-0.127,-0.1244,-0.1243,-0.1242,0,0,0,0,0,0,0,0,0,0,0,0,0,-0.1328,-0.1347,-0.1308,-0.1299,-0.1298,-0.1283,-0.1282,-0.1282,-0.127,-0.127,-0.127,-0.127,-0.1244,-0.1243,-0.1242,-0.1235,0,0,-0.1239,-0.1238,0,0,0,0,0,0,0,0,-0.1329,-0.1326,-0.1301,-0.13,-0.1298,-0.128,-0.1287,-0.1266,-0.127,-0.1281,-0.127,-0.127,-0.1256,-0.1254,-0.1249,-0.1233,-0.1232,-0.1239,-0.1238,-0.1238,-0.1237,0,0,0,0,0,0,0,-0.133,-0.1327,-0.1298,-0.13,-0.1299,-0.1296,-0.1293,-0.1283,-0.1268,-0.128,-0.1279,-0.1276,-0.1255,-0.125,-0.1248,-0.1232,-0.1239,-0.1238,-0.1237,-0.1237,-0.1209,-0.1209,0,0,0,0,0,0,-0.1333,-0.1328,-0.1299,-0.1297,-0.1314,-0.1295,-0.1292,-0.1286,-0.1268,-0.1266,-0.1276,-0.1275,-0.1252,-0.1249,-0.1247,-0.1237,-0.1238,-0.1237,-0.1236,-0.1209,-0.1209,-0.1209,0,0,0,0,0,0,-0.1334,-0.1331,-0.13,-0.1313,-0.1309,-0.1295,-0.1287,-0.1285,-0.128,-0.1265,-0.1263,-0.1273,-0.1252,-0.1249,-0.1238,-0.1236,-0.1236,-0.1235,-0.1209,-0.1209,-0.1209,-0.1217,0,0,0,0,0,0,-0.1335,-0.1331,-0.1328,-0.1313,-0.1308,-0.1291,-0.1287,-0.1284,-0.1278,-0.1277,-0.1262,-0.126,-0.1251,-0.124,-0.1237,-0.1235,-0.1234,-0.121,-0.1209,-0.1209,-0.1217,-0.1217,-0.1218,0,0,0,0,0,-0.1337,-0.1331,-0.1328,-0.1324,-0.1304,-0.1291,-0.1288,-0.1279,-0.1278,-0.1275,-0.1265,-0.126,-0.1237,-0.1239,-0.1235,-0.1233,-0.121,-0.1209,-0.1209,-0.1217,-0.1217,-0.1218,0,0,0,0,0,0,-0.1346,-0.1329,-0.1325,-0.1314,-0.1304,-0.1289,-0.1285,-0.128,-0.127,-0.1269,-0.1258,-0.1255,-0.1245,-0.1238,-0.124,-0.1225,-0.1223,-0.1222,-0.123,-0.123,-0.123,-0.1232,-0.1233,0,0,0,0,0,-0.1347,-0.1338,-0.1324,-0.1316,-0.1311,-0.1299,-0.1293,-0.1286,-0.1276,-0.1271,-0.1261,-0.1251,-0.1241,-0.1235,-0.1226,-0.1216,-0.1213,-0.1213,-0.1213,-0.1213,-0.1213,-0.1207,-0.1207,-0.1209,-0.1209,-0.1209,0,0,-0.1349,-0.1338,-0.1333,-0.1317,-0.1309,-0.13,-0.1295,-0.1286,-0.1279,-0.127,-0.1259,-0.1252,-0.1239,-0.1229,-0.1224,-0.1223,-0.1212,-0.1213,-0.1214,-0.1213,-0.1207,-0.1207,-0.1207,-0.1209,-0.1209,-0.1209,0,0,-0.1348,-0.1339,-0.1331,-0.1323,-0.131,-0.1302,-0.13,-0.1286,-0.128,-0.1269,-0.1262,-0.1254,-0.1238,-0.123,-0.1223,-0.1219,-0.1214,-0.1217,-0.1218,-0.1213,-0.1213,-0.1213,-0.1211,-0.1211,-0.1216,-0.1216,-0.1216,0,-0.1351,-0.1338,-0.1328,-0.1319,-0.1312,-0.1303,-0.1296,-0.1288,-0.1273,-0.1268,-0.1267,-0.1247,-0.1238,-0.1226,-0.1225,-0.122,-0.1218,-0.1218,-0.1214,-0.1213,-0.1213,-0.1212,-0.1211,-0.1216,-0.1216,-0.1216,-0.1216,0,-0.1343,-0.1334,-0.1329,-0.1314,-0.1307,-0.1299,-0.1288,-0.1282,-0.1276,-0.1269,-0.1258,-0.1247,-0.1235,-0.1232,-0.1226,-0.1219,-0.1219,-0.1216,-0.1214,-0.1214,-0.1212,-0.1211,-0.1217,-0.1217,-0.1217,-0.1217,0,0,-0.1346,-0.1327,-0.1325,-0.1319,-0.1304,-0.1297,-0.1289,-0.1277,-0.1272,-0.1262,-0.1255,-0.1241,-0.1238,-0.1231,-0.1225,-0.122,-0.1218,-0.1218,-0.1217,-0.1218,-0.121,-0.1212,-0.1211,-0.1215,-0.1215,-0.1214,-0.1211,0,-0.1343,-0.1327,-0.1318,-0.1307,-0.1298,-0.129,-0.1282,-0.1273,-0.1266,-0.1257,-0.1249,-0.124,-0.1237,-0.1233,-0.1228,-0.1219,-0.1216,-0.122,-0.1208,-0.1208,-0.1211,-0.1211,-0.1213,-0.121,-0.121,-0.121,-0.121,0,-0.1337,-0.1327,-0.1314,-0.1301,-0.1297,-0.129,-0.1279,-0.1271,-0.1261,-0.1256,-0.1248,-0.1241,-0.1233,-0.1232,-0.1219,-0.1222,-0.1217,-0.1212,-0.1211,-0.121,-0.1209,-0.1209,-0.1209,-0.1208,-0.1209,-0.1209,-0.1209,0,-0.134,-0.1324,-0.1314,-0.1309,-0.1293,-0.1289,-0.1282,-0.1271,-0.1265,-0.1255,-0.1251,-0.1241,-0.1235,-0.1227,-0.1218,-0.1218,-0.1207,-0.1205,-0.1203,-0.1203,-0.12,-0.1201,-0.1199,-0.1197,-0.1197,-0.1197,-0.1197,0,-0.1337,-0.133,-0.1316,-0.131,-0.1301,-0.1291,-0.1283,-0.1276,-0.1267,-0.1259,-0.1252,-0.1245,-0.1234,-0.1226,-0.1219,-0.121,-0.1207,-0.1203,-0.1201,-0.1204,-0.1204,-0.12,-0.12,-0.1197,-0.1197,-0.1197,-0.1197,0,-0.134,-0.133,-0.1319,-0.1305,-0.1302,-0.1296,-0.1284,-0.1278,-0.1271,-0.1262,-0.1259,-0.1247,-0.1237,-0.1228,-0.1215,-0.121,-0.1201,-0.1199,-0.1205,-0.1204,-0.1202,-0.1202,-0.1198,-0.1196,-0.1196,-0.1196,-0.1196,0,-0.1338,-0.1333,-0.1318,-0.1313,-0.1306,-0.1297,-0.1291,-0.1281,-0.1275,-0.1262,-0.1258,-0.1248,-0.1239,-0.1224,-0.1214,-0.1204,-0.1201,-0.12,-0.12,-0.1203,-0.1201,-0.1202,-0.1201,-0.1201,-0.1201,-0.1201,-0.1201,0,-0.1337,-0.1333,-0.1324,-0.1313,-0.1306,-0.1297,-0.1288,-0.1284,-0.1272,-0.1266,-0.1255,-0.1249,-0.1235,-0.1225,-0.1214,-0.1208,-0.1202,-0.1201,-0.12,-0.1202,-0.1206,-0.1204,-0.1205,-0.1201,-0.1201,-0.1201,-0.1201,-0.1201,-0.1338,-0.1332,-0.1321,-0.1311,-0.1304,-0.1295,-0.1289,-0.1281,-0.1272,-0.1261,-0.1256,-0.1246,-0.1235,-0.122,-0.1213,-0.1206,-0.1204,-0.1203,-0.1202,-0.1202,-0.1202,-0.1208,-0.1203,-0.1203,-0.1203,-0.1203,-0.1203,0,-0.1336,-0.1328,-0.1319,-0.1307,-0.13,-0.1295,-0.1285,-0.1279,-0.1271,-0.1261,-0.1253,-0.1242,-0.1232,-0.1222,-0.1212,-0.1207,-0.1205,-0.1205,-0.1205,-0.1204,-0.1204,-0.1206,-0.1207,-0.1207,-0.1207,-0.1207,-0.1207,-0.1207,-0.1334,-0.1324,-0.1319,-0.1305,-0.1298,-0.1288,-0.1283,-0.1275,-0.1268,-0.1255,-0.1247,-0.1241,-0.1231,-0.122,-0.1211,-0.1209,-0.1205,-0.1206,-0.1203,-0.1204,-0.1203,-0.1203,-0.1205,-0.1206,-0.1206,-0.1203,-0.1203,-0.1203]},{"header":{"parameterUnit":"m.s-1","parameterCategory":1,"la1":30.2991,"la2":30.254,"lo1":-89.0895,"lo2":-89.0444,"dy":0.0017,"dx":0.0017,"nx":28,"ny":28,"refTime":"2025-11-18T09:00:00:Z","depth":0,"parameterNumber":3,"parameterNumberName":"V-component_of_WINDS"},"data":[0,0,0,0,0,0,0,0,0,0,0,0,0,0,0,0,0,0,0,0,0,0,0,0,0,0,0,0,0,0,0,0,0,0,0,0,0,0,0,0,0,0,0,0,0,0,0,0,0,0,0,0,0,0,0,0,0,0,0.6276,0.6275,0,0.6236,0.6235,0.6235,0.6234,0.6235,0.6235,0.6236,0.6192,0.619,0.6188,0,0,0,0,0,0,0,0,0,0,0,0,0,0.6349,0.6347,0.6276,0.6275,0.6275,0.6236,0.6235,0.6234,0.6234,0.6235,0.6235,0.6236,0.6192,0.619,0.6188,0,0,0,0,0,0,0,0,0,0,0,0,0,0.6314,0.6347,0.6276,0.627,0.6269,0.6236,0.6235,0.6234,0.6234,0.6235,0.6235,0.6236,0.6193,0.619,0.6188,0.6157,0,0,0.618,0.6179,0,0,0,0,0,0,0,0,0.6316,0.6311,0.6271,0.627,0.6269,0.6241,0.6245,0.6208,0.6234,0.6247,0.6236,0.6237,0.6207,0.6203,0.6194,0.6155,0.6153,0.618,0.6179,0.6177,0.6177,0,0,0,0,0,0,0,0.6318,0.6313,0.626,0.627,0.6269,0.6268,0.6264,0.6238,0.6223,0.6246,0.6246,0.6241,0.6207,0.6197,0.6193,0.6152,0.618,0.6178,0.6176,0.6175,0.6086,0.6085,0,0,0,0,0,0,0.6322,0.6315,0.6261,0.6258,0.6295,0.6266,0.6262,0.6249,0.6223,0.622,0.6241,0.6241,0.62,0.6196,0.6192,0.6154,0.6178,0.6175,0.6174,0.6087,0.6085,0.6084,0,0,0,0,0,0,0.6324,0.6317,0.6262,0.6287,0.6279,0.6264,0.625,0.6248,0.6238,0.6219,0.6217,0.6233,0.6201,0.6195,0.6166,0.6152,0.6174,0.6172,0.6088,0.6086,0.6085,0.6078,0,0,0,0,0,0,0.6326,0.6318,0.6307,0.6286,0.6278,0.6238,0.6249,0.6246,0.6234,0.6234,0.6212,0.6209,0.6201,0.617,0.6163,0.6149,0.617,0.6089,0.6087,0.6085,0.6079,0.6076,0.6074,0,0,0,0,0,0.6328,0.6306,0.6306,0.63,0.6264,0.6237,0.6233,0.6225,0.6233,0.6221,0.6209,0.6209,0.6155,0.6167,0.616,0.6144,0.609,0.6087,0.6086,0.608,0.6077,0.6074,0,0,0,0,0,0,0.6323,0.6303,0.6303,0.6273,0.6257,0.6238,0.6222,0.6222,0.6203,0.6204,0.6194,0.6189,0.616,0.6149,0.6163,0.6113,0.6123,0.6119,0.6121,0.6118,0.6115,0.6118,0.6168,0,0,0,0,0,0.6319,0.63,0.6283,0.6258,0.625,0.6238,0.6226,0.6222,0.6204,0.6197,0.6183,0.6165,0.6144,0.613,0.611,0.6078,0.6072,0.6064,0.6061,0.6059,0.6056,0.6037,0.6033,0.6078,0.6078,0.6078,0,0,0.6309,0.6296,0.6284,0.6257,0.6244,0.6224,0.6232,0.621,0.6195,0.6193,0.6165,0.6154,0.6134,0.6103,0.6089,0.6093,0.6042,0.6056,0.6055,0.6053,0.6035,0.6031,0.6027,0.6076,0.6077,0.6077,0,0,0.6282,0.627,0.6248,0.6235,0.6216,0.6208,0.6202,0.6183,0.6176,0.6148,0.6146,0.6127,0.6091,0.6077,0.6065,0.6032,0.6031,0.6025,0.6011,0.5994,0.599,0.5987,0.5975,0.597,0.6022,0.6022,0.6022,0,0.6272,0.6242,0.6236,0.6215,0.6202,0.6201,0.6178,0.6166,0.6141,0.6132,0.6137,0.6092,0.6078,0.6044,0.6036,0.6026,0.6019,0.6027,0.5991,0.5988,0.5985,0.5973,0.5969,0.6022,0.6022,0.6022,0.6022,0,0.6231,0.621,0.6195,0.6172,0.6157,0.6135,0.6125,0.6111,0.6108,0.6099,0.607,0.6054,0.603,0.6022,0.6018,0.5986,0.599,0.5993,0.6003,0.598,0.5969,0.5964,0.6021,0.6021,0.6021,0.6021,0,0,0.6198,0.6172,0.6167,0.6156,0.6135,0.6119,0.6096,0.6074,0.6062,0.6045,0.6025,0.5995,0.5998,0.5984,0.5979,0.5964,0.5938,0.5969,0.5969,0.5964,0.5902,0.5899,0.5894,0.5938,0.5937,0.5936,0.5903,0,0.6168,0.6129,0.6123,0.6088,0.6069,0.6068,0.6049,0.6033,0.6024,0.6006,0.5995,0.5974,0.598,0.5972,0.5957,0.5945,0.5926,0.5947,0.5919,0.5918,0.5924,0.5888,0.5885,0.5855,0.5899,0.5898,0.5898,0,0.6127,0.611,0.6074,0.6055,0.6047,0.603,0.6009,0.5991,0.5973,0.5968,0.5953,0.595,0.5926,0.5937,0.5903,0.5918,0.5906,0.5898,0.5897,0.5893,0.5906,0.5883,0.5845,0.584,0.5891,0.5891,0.5892,0,0.6106,0.6074,0.6048,0.6039,0.6017,0.6005,0.5995,0.5978,0.5965,0.5947,0.5938,0.5916,0.5904,0.5887,0.5878,0.5887,0.5845,0.5855,0.5839,0.5839,0.5829,0.583,0.5788,0.5822,0.5822,0.5822,0.5823,0,0.6073,0.605,0.6039,0.6023,0.5998,0.5991,0.5966,0.5956,0.5941,0.5922,0.592,0.5902,0.5891,0.5872,0.5864,0.5837,0.5832,0.5826,0.5824,0.5826,0.5827,0.5818,0.5819,0.5821,0.5822,0.5822,0.5822,0,0.6045,0.6036,0.6008,0.599,0.5985,0.5967,0.5951,0.5935,0.5927,0.5903,0.5897,0.5884,0.5861,0.585,0.5821,0.5816,0.5785,0.5785,0.5791,0.5791,0.5774,0.5776,0.5724,0.5717,0.5757,0.5757,0.5757,0,0.6024,0.6007,0.5988,0.5976,0.5966,0.5946,0.5933,0.5926,0.5912,0.589,0.5877,0.5854,0.5836,0.5799,0.5785,0.5763,0.5762,0.5746,0.5759,0.5761,0.5761,0.5762,0.576,0.5743,0.5743,0.5743,0.5742,0,0.5987,0.5984,0.5966,0.5946,0.5931,0.5915,0.5899,0.5889,0.5879,0.5864,0.5841,0.5826,0.5798,0.5775,0.5752,0.5741,0.5739,0.5738,0.5733,0.5735,0.5739,0.5736,0.5784,0.5739,0.574,0.574,0.574,0.574,0.5962,0.5947,0.5931,0.5911,0.5898,0.5884,0.5868,0.5858,0.5839,0.5816,0.5812,0.5787,0.577,0.5739,0.5727,0.5707,0.5711,0.5703,0.5701,0.57,0.5699,0.5743,0.5703,0.5703,0.5703,0.5703,0.5703,0,0.5925,0.5915,0.5896,0.5875,0.5859,0.586,0.5843,0.5829,0.5808,0.5792,0.5774,0.5748,0.5725,0.5711,0.5688,0.5675,0.5674,0.5669,0.567,0.5667,0.5697,0.5703,0.5671,0.5671,0.5671,0.5671,0.5671,0.5671,0.5903,0.5878,0.5873,0.5841,0.583,0.5807,0.5797,0.5783,0.5771,0.5742,0.5724,0.5715,0.5699,0.5675,0.5655,0.5651,0.5642,0.5638,0.5634,0.5662,0.5665,0.5668,0.5674,0.5636,0.5636,0.5606,0.5605,0.5605]}]]